User: anonymous   Login
Location: Bakov nad Jizerou
(50.4784°N, 14.9394°E)
Time: 21:52:59
(UTC+00:00)
Language:

Genesis I - Orbit

View from above orbital plane
View from above orbital plane
View from above satellite
View from above satellite

Ground track
Ground track

The orbit data is extracted from the following two-line orbital elements,

1 29252U 06029A   21292.87053084  .00001000  00000-0  55916-4 0  9999
2 29252  64.5194 139.9234 0055182 298.5957  60.9621 15.18966930842419
Epoch (UTC): 19 October 2021 20:53:33
Eccentricity: 0.0055182
inclination: 64.5194°
perigee height: 471 km
apogee height: 547 km
right ascension of ascending node: 139.9234°
argument of perigee: 298.5957°
revolutions per day: 15.18966930
mean anomaly at epoch: 60.9621°
orbit number at epoch: 84241

The dashed part of the orbit path shows where the satellite is in the earth's shadow,  

DLR